Regional Weather Roundup
Issued by NWS

Home | Current Version | Previous Version | Graphics & Text | Print | Product List | Glossary On
Versions: 1 2 3 4 5 6 7 8 9 10 11 12 13 14 15 16 17 18 19 20 21 22 23 24 25 26 27 28 29 30 31 32 33 34 35 36 37 38 39 40 41 42 43 44 45 46 47 48 49 50
000
ASUS43 KMKX 290800
RWRWI

WISCONSIN REGIONAL WEATHER ROUNDUP
NATIONAL WEATHER SERVICE MILWAUKEE/SULLIVAN WI
300 AM CDT THU JUN 29 2017

NOTE: "FAIR" INDICATES FEW OR NO CLOUDS BELOW 12,000 FEET WITH NO
SIGNIFICANT WEATHER AND/OR OBSTRUCTIONS TO VISIBILITY.

WIZ001-002-006>008-014>016-023>028-290900-
NORTHWEST WISCONSIN

CITY           SKY/WX    TMP DP  RH WIND       PRES   REMARKS
SUPERIOR ARPT  NOT AVBL
ASHLAND        CLOUDY    62  60  93 W16G22    29.50S
HAYWARD        LGT RAIN  59  57  93 VRB5      29.56S
SIREN          DRIZZLE   62  60  94 W6        29.59S
CUMBERLAND     CLOUDY    63  61  94 W12       29.58S
RICE LAKE      CLOUDY    65  62  90 W9        29.59S
CHETEK         MOCLDY    64  62  94 W5        29.58S
LADYSMITH      CLOUDY    65  64  95 W3        29.58S
EAU CLAIRE     NOT AVBL
MENOMONIE      PTCLDY    63  60  90 SW5       29.60S
NEW RICHMOND   CLOUDY    65  59  81 W15       29.61S
OSCEOLA        CLOUDY    64  64 100 W7        29.64R
$$

WIZ003>005-009-010-017-018-290900-
NORTH CENTRAL WISCONSIN

CITY           SKY/WX    TMP DP  RH WIND       PRES   REMARKS
MANITOWISH WTR RAIN      64  64 100 S9        29.55F
ARBOR VITAE    DRIZZLE   65  63  94 SW7       29.56F
WOODRUFF       DRIZZLE   65  63  94 SW7       29.56F
RHINELANDER    CLOUDY    64  64 100 SW7G16    29.58F
EAGLE RIVER    CLOUDY    64  64 100 CALM      29.57F
LAND O LAKES   LGT RAIN  65  64  99 S5        29.58F
PHILLIPS       CLOUDY    64  64 100 SW6       29.56S
TOMAHAWK       NOT AVBL
MEDFORD        CLOUDY    62  61  96 SW8       29.59S
MERRILL        MOCLDY    64  64 100 SW6       29.58F
$$

WIZ029-030-035-036-043>047-290900-
CENTRAL WISCONSIN

CITY           SKY/WX    TMP DP  RH WIND       PRES   REMARKS
WAUSAU         CLOUDY    65  64  97 SW6       29.58S
MOSINEE        CLOUDY    63  63 100 S7        29.61S FOG
MARSHFIELD     PTCLDY    64  62  93 W8        29.59S
STEVENS POINT  CLOUDY    63  63 100 S6        29.61F FOG
WAUPACA        CLOUDY    64  64  98 S3        29.63R
WAUTOMA        CLOUDY    64  63  96 S8        29.64S
WISC RAPIDS    MOCLDY    65  63  93 SW8       29.62S
CAMP DOUGLAS   NOT AVBL
$$

WIZ011>013-019>022-031-037>040-048>050-290900-
NORTHEAST WISCONSIN

CITY           SKY/WX    TMP DP  RH WIND       PRES   REMARKS
ANTIGO         CLOUDY    64  64  99 SW8       29.61S
SHAWANO        NOT AVBL
OCONTO         MOCLDY    64  62  94 CALM      29.60F
STURGEON BAY     N/A     58  58 100 S14       29.62F FOG
GREEN BAY      CLOUDY    67  65  93 S12       29.62S
MANITOWOC      LGT RAIN  63  63 100 S13       29.65F
APPLETON       PTCLDY    64  64 100 S8        29.63R
CLINTONVILLE   CLOUDY    64  63  94 S7        29.61S
OSHKOSH        CLOUDY    67  64  90 S13       29.64S
$$

WIZ032>034-041-042-053>061-290900-
SOUTHWEST WISCONSIN

CITY           SKY/WX    TMP DP  RH WIND       PRES   REMARKS
LA CROSSE      CLEAR     68  65  90 S7        29.64R
SPARTA         CLEAR     62  62  99 CALM      29.63S
VIROQUA        CLEAR     64  64 100 SW9       29.66S
BOSCOBEL       CLOUDY    66  64  93 CALM      29.67R
PRAIRIE DU CHI CLOUDY    64  63  96 CALM      29.67S FOG
PLATTEVILLE    CLOUDY    68  68 100 S6        29.70R
$$

WIZ056-057-062-063-064-067-068-290900-
SOUTH CENTRAL WISCONSIN

CITY           SKY/WX    TMP DP  RH WIND       PRES   REMARKS
REEDSBURG      CLOUDY    66  66 100 S5        29.65S
BARABOO/DELLS  CLOUDY    66  63  90 SW5       29.65S
LONE ROCK      NOT AVBL
MINERAL POINT  CLOUDY    68  68 100 S7        29.70R
MADISON        CLOUDY    67  65  93 S9        29.68R
MIDDLETON      CLOUDY    68  67  97 SW6       29.68R
WATERTOWN      CLOUDY    64  64 100 S10       29.66S
MONROE         MOCLDY    66  63  88 S8        29.69F
JANESVILLE     MOCLDY    66  66 100 S8        29.68F
$$

WIZ051-052-058>065-066-070>072-290900-
SOUTHEAST WISCONSIN

CITY           SKY/WX    TMP DP  RH WIND       PRES   REMARKS
MILWAUKEE      CLOUDY    66  64  93 S16G28    29.68F
WAUKESHA       MOCLDY    63  63 100 S9        29.70F
MILWAUKEE/TIMM CLOUDY    64  61  88 S14G20    29.68F
RACINE         CLOUDY    65  63  93 VRB3      29.72F
KENOSHA        CLOUDY    66  62  87 S9        29.72F
FOND DU LAC    CLOUDY    68  62  81 SW9       29.68S
SHEBOYGAN      CLOUDY    63  63 100 SW6       29.67S
WEST BEND      CLOUDY    64  63  94 S9G22     29.64F
JUNEAU         CLOUDY    65  63  91 SW13      29.68R
$$

LSZ147-162-290900-
LAKE SUPERIOR

STATION/POSITION TIME  TEMP    WIND        PRES    WAVE
                       AIR SEA DIR/SP/G            HT/PER
                 (UTC) (F)     (DEG/KT/KT) (MB)    (FT/S)
W MID LAKE BUOY  0650   48 39   30/ 16/ 19  999.7F   3/ 4
DEVILS ISLAND    0700   51      60/ 14/ 16  999.2S
SAXON HARBOR     0740   66     200/  3/  5  998.6F
$$

LMZ867-665-643>646-290900-
LAKE MICHIGAN

STATION/POSITION TIME  TEMP    WIND        PRES    WAVE
                       AIR SEA DIR/SP/G            HT/PER
                 (UTC) (F)     (DEG/KT/KT) (MB)    (FT/S)
CHAMBERS ISLAND  0740   62     160/  5/ 13 1002.4F
S GREEN BAY BUOY 0730   66     160/ 10/ 14 1002.2F
N MID LAKE BUOY  0650   57 54  180/ 17/ 21 1004.0F   7/ 7
NORTHPORT PIER   0740   59     160/  9/ 15 1003.4S
KEWAUNEE LAKESHO 0730   54     160/ 13/ 14 1003.6S
SHEBOYGAN LAKESH 0700   54     170/ 19/ 20 1004.2F
PORT WASHINGTON  0730   58     200/  8/ 15 1004.7F
ATWATER BUOY     0609   58 46  190/ 16/ 19 1007.8R
MILWAUKEE LAKESH 0730   60     160/ 16/ 17   N/A
S MID LAKE BUOY  0650   62 60  160/ 19/ 23 1008.1R   3/ 5
KENOSHA   LAKESH 0700   59     180/ 12/ 20 1007.5
$$

TC  - TEMPERATURE IN CELSIUS
VSB - VISIBILITY IN STATUTE MILES
WCI - WIND CHILL INDEX
HX  - HEAT INDEX




USA.gov is the U.S. government's official web portal to all federal, state and local government web resources and services.